www.pogodaiklimat.ru

Погода и климат >> Архив погоды >> Индонезия >> Сиребон


ПОГОДА в Сиребоне

  • Прогноз погоды в Сиребоне
  • Монитор погоды в Сиребоне

АРХИВ ПОГОДЫ в Сиребоне

Время (UTC), дата Ветер
(напр.,м/с)
 
Видим.   Явления Облачность Т
(С)
Тd
(С)
f
(%)
Тe
(С)
Тes
(С)
Комфортность P
(гПа)
Po
(гПа)
Тmin
(С)
Tmax
(С)
R
(мм)
R24
(мм)
S
(см)
06 19.06 Ю 1 10 км 4/1 600 м
[Cu hum Ci fib]
+33.1 +20.6 48 +40 +55 опасность
солнечного
удара
1009.6 1004.6
09 19.06 ЮВ 2 10 км 5/1 600 м
[Cu hum Ci fib]
+32.8 +22.3 54 +42 +44 опасность
перегрева
1008.4 1003.4
12 19.06 З 2 10 км 5/1 600 м
[Cu hum Cs]
+27.8 +21.3 68 +35 +35 очень
душно
1009.5 1004.5 +34.0
15 19.06 Ю 4 10 км 6/1 600 м
[Cu hum Ac trans Ci fib]
+25.6 +17.5 61 +30 +30 душно 1010.8 1005.8
18 19.06 ЮВ 2 9000 м 6/1 600 м
[Sc Ac trans Ci fib]
+23.8 +17.8 69 +28 +28 душно 1011.6 1006.6
21 19.06 штиль 0 9000 м 6/1 600 м
[Sc Ac trans Ci fib]
+21.0 +18.3 85 +25 +25 комфорт 1011.0 1006.1
00 20.06 штиль 0 10 км 6/1 600 м
[Sc Ac trans Ci fib]
+20.8 +16.5 76 +24 +25 комфорт 1012.2 1007.1
03 20.06 Ю 2 10 км 8/3 600 м
[Sc Ac trans Ci fib]
+30.0 +26.0 79 +45 +51 опасность
перегрева
1012.0 1006.9
06 20.06 В 2 10 км 6/1 600 м
[Sc Ci fib]
+33.4 +20.4 47 +40 +53 опасность
солнечного
удара
1009.5 1004.5
09 20.06 В 2 10 км 1/0
[Ci fib]
+32.9 +23.2 57 +43 +47 опасность
перегрева
1007.9 1002.9
12 20.06 З 1 10 км 3/0
[Ci fib]
+27.8 +23.3 77 +38 +38 очень
душно
1009.6 1004.6 +34.2
15 20.06 Ю 1 9000 м 3/0
[Ci fib]
+24.2 +19.4 75 +29 +29 душно 1010.6 1005.5
18 20.06 штиль 0 9000 м 3/0
[Ci fib]
+22.2 +17.2 73 +27 +27 душно 1010.6 1005.5
21 20.06 Ю 1 9000 м 3/0
[Ci fib]
+21.2 +18.2 83 +25 +25 комфорт 1010.3 1005.2
00 21.06 Ю 1 10 км 5/0
[Ci fib]
+21.3 +17.8 80 +25 +27 комфорт 1011.1 1006.1 +20.3
03 21.06 В 1 10 км 3/0
[Ci fib]
+29.6 +20.8 59 +37 +52 опасность
солнечного
удара
1011.0 1006.0
06 21.06 Ю 2 10 км 5/3 600 м
[Cu hum Ci fib]
+32.1 +22.1 56 +41 +52 опасность
перегрева
1008.7 1003.7
09 21.06 ЮВ 2 10 км 5/1 600 м
[Cu hum Ci sp]
+31.4 +21.3 55 +39 +42 очень
душно
1007.8 1002.8
12 21.06 штиль 0 9000 м 5/1 600 м
[Sc Cs]
+27.2 +23.1 78 +36 +36 очень
душно
1009.5 1004.4 +33.0
15 21.06 штиль 0 9000 м 3/0
[Ci fib]
+24.2 +21.1 83 +31 +31 очень
душно
1010.6 1005.6
18 21.06 Ю 1 9000 м 1/0
[Ci fib]
+21.7 +18.3 81 +26 +26 душно 1009.5 1004.5
21 21.06 штиль 0 9000 м 1/0
[Ci fib]
+19.9 +17.9 88 +23 +23 комфорт 1009.2 1004.1
00 22.06 штиль 0 10 км 8/0
[Ci fib]
+24.1 +22.6 91 +32 +33 очень
душно
1009.9 1004.8 +19.1
03 22.06 ЮВ 1 10 км 5/0
[Ci fib]
+28.6 +20.3 61 +35 +50 очень
душно
1010.5 1005.4
06 22.06 В 2 10 км 5/1 600 м
[Cu hum Ci fib]
+32.4 +23.4 59 +43 +55 опасность
перегрева
1008.4 1003.4
09 22.06 В 2 10 км 5/1 600 м
[Cu hum Ci fib]
+30.7 +23.5 66 +42 +44 опасность
перегрева
1007.9 1002.9
12 22.06 СВ 1 10 км 6/1 600 м
[Cu hum As trans Ci fib]
+27.5 +24.2 82 +38 +38 очень
душно
1009.3 1004.2 +32.4
15 22.06 штиль 0 9000 м 8/1 600 м
[Cu hum Ci fib]
+25.4 +22.9 86 +34 +34 очень
душно
1010.7 1005.7
18 22.06 штиль 0 9000 м 5/0
[Ci fib]
+23.9 +22.4 91 +31 +31 очень
душно
1010.1 1005.0
21 22.06 штиль 0 9000 м 6/0
[Ci fib]
+23.1 +21.0 88 +31 +31 очень
душно
1009.7 1004.7
00 23.06 штиль 0 10 км 9/3 600 м
[Sc As op Cs]
+22.4 +21.1 92 +29 +30 очень
душно
1011.6 1006.0 +21.6
03 23.06 ЮВ 1 10 км 9/3 600 м
[Sc As op Cs]
+29.2 +22.5 67 +38 +44 очень
душно
1011.8 1006.8
06 23.06 В 2 10 км 6/3 600 м
[Cu hum As trans Ci fib]
+32.2 +24.4 63 +44 +53 опасность
перегрева
1009.4 1004.4
09 23.06 В 2 10 км 5/3 600 м
[Cu hum As trans Ci fib]
+32.0 +25.0 67 +46 +48 опасность
перегрева
1008.1 1003.0
12 23.06 штиль 0 10 км 5/1 600 м
[Sc As trans Ci fib]
+27.8 +25.1 85 +40 +40 очень
душно
1010.0 1005.0 +32.8
15 23.06 Ю 1 9000 м 5/1 600 м
[Sc As trans Ci fib]
+25.2 +21.1 78 +32 +32 очень
душно
1011.4 1006.3
18 23.06 Ю 1 9000 м 5/1 600 м
[Sc As trans Ci fib]
+23.2 +20.2 83 +30 +30 очень
душно
1011.1 1006.0
21 23.06 Ю 1 9000 м 5/1 600 м
[Sc As trans Ci fib]
+22.4 +19.9 86 +29 +29 очень
душно
1010.9 1005.9
00 24.06 штиль 0 10 км 5/1 600 м
[Sc Ci fib]
+21.8 +19.4 86 +27 +28 душно 1012.4 1007.4 +21.2
03 24.06 В 1 10 км 4/0
[Ci fib]
+29.9 +20.8 58 +37 +51 опасность
солнечного
удара
1012.3 1007.3
06 24.06 Ю 2 10 км 6/4 600 м
[Cu hum Cs]
+33.1 +21.5 51 +41 +50 опасность
перегрева
1010.4 1005.3
09 24.06 В 2 10 км 8/4 600 м
[Cu hum Cs]
+33.0 +21.9 52 +41 +43 опасность
перегрева
1009.5 1004.5
12 24.06 штиль 0 10 км 6/3 600 м
[Cu hum As trans Ci fib]
+28.8 +23.0 71 +39 +39 очень
душно
1011.4 1006.3 +34.0
15 24.06 штиль 0 10 км 6/3 600 м
[Cu hum As trans Ci fib]
+25.0 +21.6 81 +32 +32 очень
душно
1013.0 1007.9
18 24.06 Ю 1 10 км 5/1 600 м
[Sc As trans Ci fib]
+22.8 +19.3 81 +29 +29 очень
душно
1011.9 1006.9
21 24.06 штиль 0 10 км 5/1 600 м
[Sc As trans Ci fib]
+21.6 +18.9 85 +26 +26 душно 1011.9 1006.8
00 25.06 Ю 1 10 км 5/0
[As trans Cs]
+21.4 +18.7 85 +26 +27 душно 1013.3 1008.3 +21.0
03 25.06 Ю 1 10 км 5/1 600 м
[Sc Ci fib]
+29.8 +22.0 63 +38 +52 опасность
солнечного
удара
1013.7 1008.6
06 25.06 СВ 2 10 км 6/1 600 м
[Cu hum As trans Ci fib]
+32.6 +23.6 59 +44 +54 опасность
перегрева
1011.2 1006.1
09 25.06 В 3 10 км 3/1 600 м
[Cu hum Ci fib]
+31.4 +23.0 61 +42 +44 опасность
перегрева
1009.7 1004.6
12 25.06 штиль 0 10 км 3/1 600 м
[Cu hum Ci fib]
+27.6 +24.5 83 +39 +39 очень
душно
1011.0 1006.0 +33.7
15 25.06 Ю 1 9000 м 3/1 600 м
[Cu hum Ci fib]
+24.8 +22.6 88 +33 +33 очень
душно
1012.2 1007.2
18 25.06 штиль 0 9000 м 3/1 600 м
[Cu hum Ci fib]
+24.2 +19.5 75 +29 +29 душно 1011.9 1006.8
21 25.06 Ю 1 9000 м 3/1 600 м
[Cu hum Ci fib]
+23.4 +21.4 89 +32 +32 очень
душно
1011.5 1006.4
00 26.06 Ю 1 9000 м 3/1 600 м
[Cu hum Cs]
+22.4 +19.8 85 +28 +30 душно 1012.8 1007.7 +21.4
03 26.06 В 2 10 км 5/1 600 м
[Sc As trans Ci fib]
+30.0 +22.8 65 +40 +49 очень
душно
1013.0 1007.9

 

Местоположение метеостанции Сиребон (Индонезия): широта -6.75 долгота 108.26 высота над уровнем моря 50 м.

В архиве по умолчанию представлена погода в Сиребоне за последнюю неделю. Архивные данные за месяц целиком и за предыдущие месяцы, начиная с января 2011 года, Вы можете получить, выбрав интересующий диапазон дат из раскрывающегося списка и нажав кнопку "Ввод!".


*Определитесь, кто Вы:
робот инопланетянин человек

Внимание! Время в таблицах - всемирное. Для получения местного времени необходимо прибавить поправку, которая равна 7 ч.

Смотрите также архив погоды в соседних городах и на ближайших метеорологических станциях:

Погода в Бандунге (Индонезия) (77 км)
Погода в Тегале (Индонезия) (99 км)
Погода в Чилачапе (Индонезия) (137 км)
Погода в Цитеко (Индонезия) (147 км)
Погода в Джакарта порту (Индонезия) (170 км)
Погода в Джакарте (Индонезия) (170 км)
Погода в Чуруге (Индонезия) (187 км)
Погода в Аэропорту Сукарно-Хатта (Индонезия) (191 км)
Погода в Аэропорту Ахмад Яни (Индонезия) (236 км)
Погода в Семаранге (Индонезия) (239 км)

Пояснения к столбцам:

Ветер - указаны скорость ветра в м/с - средняя за 10 мин, порывы в срок и между сроками (в фигурных скобках) и направление, откуда дует ветер: С - северный, СВ - северо-восточный, В - восточный, ЮВ - юго-восточный, Ю - южный, ЮЗ - юго-западный, З - западный, СЗ - северо-западный.
Видимость - горизонтальная дальность видимости в метрах или километрах. При видимости от 1 до 10 км при отсутствии осадков обычно наблюдается дымка, при ухудшении видимости до 1 км и менее - туман. В сухую погоду видимость может ухудшаться дымом, пылью или мглою.
Явления - указаны атмосферные явления, наблюдавшиеся в срок или в последний час перед сроком; фигурными скобками обозначены явления, наблюдавшиеся между сроками (за 1-3 часа до срока); квадратными скобками обозначены град или гололедные отложения с указанием их диаметра в мм.
Облачность - указаны через наклонную черту общая и нижняя облачность в баллах и высота нижней границы облаков в метрах; квадратными скобками обозначены формы облаков: Ci - перистые, Cs - перисто-слоистые, Cc - перисто-кучевые, Ac - высококучевые, As - высокослоистые, Sc - слоисто-кучевые, Ns - слоисто-дождевые, Cu - кучевые, Cb - кучево-дождевые. Подробнее классификацию облаков см. в Атласе облаков (PDF).
T - Температура воздуха - температура, измеренная на высоте 2 м над землей.
Td - Температура точки росы - температура, при понижении до которой содержащийся в воздухе водяной пар достигнет насыщения.
f - Относительная влажность воздуха - влажноcть воздуха, измеренная на высоте 2 м над землей.
Te - Эффективная температура - температура, которую ощущает одетый по сезону человек в тени. Характеристика душности погоды. При расчете учитывается влияние влажности воздуха и скорости ветра на теплоощущения человека.
Tes - Эффективная температура на солнце - температура, которую ощущает человек, с поправкой на солнечный нагрев. Характеристика знойности погоды. Зависит от высоты солнца над горизонтом, облачности и скорости ветра. Ночью, в пасмурную погоду, а также при ветре 12 м/с и более поправка равна нулю.
P - Атмосферное давление - приведенное к уровню моря атмосферное давление.
Po - Атмосферное давление - измеренное на уровне метеостанции атмосферное давление.
Tmin - Минимальная температура - минимум температуры воздуха на высоте 2 м над землей.
Tmax - Максимальная температура - максимум температуры воздуха на высоте 2 м над землей.
R - Количество осадков - Количество выпавших осадков за период времени, мм. При наведении курсора мыши на число - период времени, за который выпало указанное количество осадков.
R24 - Количество осадков - Количество выпавших осадков за 24 часа, мм.
S - Снежный покров - Высота снежного покрова, см. При наведении курсора мыши на число - состояние снежного покрова и степень покрытия местности в баллах.